status,avgMeasuredTime,avgSpeed,extID,medianMeasuredTime,TIMESTAMP,vehicleCount,_id,REPORT_ID
OK,106,34,1055,106,2014-08-01T08:10:00,6,20747932,195124
OK,105,34,1055,105,2014-08-01T08:15:00,5,20748381,195124
OK,100,36,1055,100,2014-08-01T08:20:00,3,20748830,195124
OK,78,46,1055,78,2014-08-01T08:25:00,5,20749279,195124
OK,78,46,1055,78,2014-08-01T08:30:00,5,20749728,195124
OK,106,34,1055,106,2014-08-01T08:40:00,4,20750626,195124
OK,115,31,1055,115,2014-08-01T08:50:00,5,20751524,195124
OK,83,43,1055,83,2014-08-01T09:00:00,5,20752422,195124
OK,88,41,1055,88,2014-08-01T09:05:00,8,20752871,195124
OK,95,38,1055,95,2014-08-01T09:10:00,8,20753320,195124
OK,87,41,1055,87,2014-08-01T09:20:00,1,20754218,195124
OK,87,41,1055,87,2014-08-01T09:25:00,3,20754667,195124
OK,95,38,1055,95,2014-08-01T09:30:00,4,20755116,195124
OK,91,40,1055,91,2014-08-01T09:35:00,4,20755565,195124
OK,73,50,1055,73,2014-08-01T09:40:00,4,20756014,195124
OK,111,32,1055,111,2014-08-01T09:45:00,3,20756463,195124
OK,111,32,1055,111,2014-08-01T09:50:00,3,20756912,195124
OK,76,48,1055,76,2014-08-01T10:00:00,7,20757810,195124
OK,73,50,1055,73,2014-08-01T10:20:00,6,20759606,195124
OK,80,45,1055,80,2014-08-01T10:30:00,12,20760504,195124
OK,78,46,1055,78,2014-08-01T10:40:00,7,20761402,195124
OK,75,48,1055,75,2014-08-01T11:00:00,5,20763198,195124
OK,81,45,1055,81,2014-08-01T11:20:00,5,20764993,195124
OK,78,46,1055,78,2014-08-01T11:30:00,5,20765891,195124
OK,101,36,1055,101,2014-08-01T11:40:00,3,20766789,195124
OK,99,36,1055,99,2014-08-01T11:45:00,7,20767238,195124
OK,79,46,1055,79,2014-08-01T11:50:00,7,20767687,195124
OK,70,52,1055,70,2014-08-01T12:00:00,4,20768585,195124
OK,83,43,1055,83,2014-08-01T12:10:00,5,20769483,195124
OK,83,43,1055,83,2014-08-01T12:20:00,7,20770381,195124
OK,89,41,1055,89,2014-08-01T12:30:00,8,20771279,195124
OK,99,36,1055,99,2014-08-01T12:40:00,3,20772177,195124
OK,91,40,1055,91,2014-08-01T12:50:00,7,20773075,195124
OK,73,50,1055,73,2014-08-01T13:00:00,5,20773973,195124
OK,68,53,1055,68,2014-08-01T13:10:00,5,20774871,195124
OK,102,35,1055,102,2014-08-01T13:20:00,5,20775769,195124
OK,86,42,1055,86,2014-08-01T13:30:00,1,20776667,195124
OK,81,45,1055,81,2014-08-01T13:35:00,3,20777116,195124
OK,74,49,1055,74,2014-08-01T13:40:00,10,20777565,195124
OK,71,51,1055,71,2014-08-01T13:45:00,11,20778014,195124
OK,65,56,1055,65,2014-08-01T13:50:00,5,20778463,195124
OK,87,41,1055,87,2014-08-01T14:05:00,12,20779810,195124
OK,87,41,1055,87,2014-08-01T14:10:00,8,20780259,195124
OK,89,41,1055,89,2014-08-01T14:15:00,5,20780708,195124
OK,77,47,1055,77,2014-08-01T14:20:00,5,20781157,195124
OK,90,40,1055,90,2014-08-01T14:25:00,3,20781606,195124
OK,76,48,1055,76,2014-08-01T14:30:00,4,20782055,195124
OK,58,62,1055,58,2014-08-01T14:35:00,2,20782504,195124
OK,74,49,1055,74,2014-08-01T14:40:00,2,20782953,195124
OK,78,46,1055,78,2014-08-01T14:45:00,3,20783402,195124
OK,74,49,1055,74,2014-08-01T14:50:00,3,20783851,195124
OK,66,55,1055,66,2014-08-01T15:00:00,5,20784749,195124
OK,65,56,1055,65,2014-08-01T15:05:00,3,20785198,195124
OK,59,61,1055,59,2014-08-01T15:10:00,1,20785647,195124
OK,86,42,1055,86,2014-08-01T15:15:00,1,20786096,195124
OK,86,42,1055,86,2014-08-01T15:20:00,3,20786545,195124
OK,90,40,1055,90,2014-08-01T15:25:00,3,20786994,195124
OK,66,55,1055,66,2014-08-01T15:30:00,2,20787443,195124
OK,42,86,1055,42,2014-08-01T15:35:00,1,20787892,195124
OK,42,86,1055,42,2014-08-01T15:40:00,0,20788341,195124
OK,42,86,1055,42,2014-08-01T15:45:00,0,20788790,195124
OK,42,86,1055,42,2014-08-01T15:50:00,0,20789239,195124
OK,92,39,1055,92,2014-08-01T15:55:00,1,20789688,195124
OK,92,39,1055,92,2014-08-01T16:00:00,3,20790137,195124
OK,83,43,1055,83,2014-08-01T16:05:00,4,20790586,195124
OK,61,59,1055,61,2014-08-01T16:10:00,2,20791035,195124
OK,62,58,1055,62,2014-08-01T16:15:00,0,20791484,195124
OK,82,44,1055,82,2014-08-01T16:20:00,2,20791933,195124
OK,85,42,1055,85,2014-08-01T16:25:00,3,20792382,195124
OK,70,52,1055,70,2014-08-01T16:30:00,2,20792831,195124
OK,55,66,1055,55,2014-08-01T16:35:00,1,20793280,195124
OK,55,66,1055,55,2014-08-01T16:40:00,0,20793729,195124
OK,92,39,1055,92,2014-08-01T16:45:00,1,20794178,195124
OK,89,41,1055,89,2014-08-01T16:50:00,2,20794627,195124
OK,87,41,1055,87,2014-08-01T16:55:00,3,20795076,195124
OK,123,29,1055,123,2014-08-01T17:00:00,0,20795525,195124
OK,123,29,1055,123,2014-08-01T17:05:00,0,20795974,195124
OK,70,52,1055,70,2014-08-01T17:10:00,1,20796423,195124
OK,70,52,1055,70,2014-08-01T17:15:00,1,20796872,195124
OK,70,52,1055,70,2014-08-01T17:20:00,0,20797321,195124
OK,113,32,1055,113,2014-08-01T17:25:00,1,20797770,195124
OK,113,32,1055,113,2014-08-01T17:30:00,1,20798219,195124
OK,100,36,1055,100,2014-08-01T17:35:00,1,20798668,195124
OK,64,57,1055,64,2014-08-01T17:40:00,3,20799117,195124
OK,64,57,1055,64,2014-08-01T17:45:00,2,20799566,195124
OK,64,57,1055,64,2014-08-01T17:50:00,0,20800015,195124
OK,64,57,1055,64,2014-08-01T17:55:00,0,20800464,195124
OK,68,53,1055,68,2014-08-01T18:00:00,1,20800913,195124
OK,85,42,1055,85,2014-08-01T18:05:00,2,20801362,195124
OK,97,37,1055,97,2014-08-01T18:10:00,2,20801811,195124
OK,83,43,1055,83,2014-08-01T18:15:00,1,20802260,195124
OK,88,41,1055,88,2014-08-01T18:20:00,2,20802709,195124
OK,100,36,1055,100,2014-08-01T18:25:00,1,20803158,195124
OK,100,36,1055,100,2014-08-01T18:30:00,0,20803607,195124
OK,100,36,1055,100,2014-08-01T18:35:00,0,20804056,195124
OK,100,36,1055,100,2014-08-01T18:40:00,0,20804505,195124
OK,100,36,1055,100,2014-08-01T18:45:00,0,20804954,195124
OK,100,36,1055,100,2014-08-01T18:50:00,0,20805403,195124
OK,100,36,1055,100,2014-08-01T18:55:00,0,20805852,195124
OK,100,36,1055,100,2014-08-01T19:00:00,0,20806301,195124
OK,79,46,1055,79,2014-08-01T19:05:00,1,20806750,195124
OK,73,50,1055,73,2014-08-01T19:10:00,2,20807199,195124
OK,83,43,1055,83,2014-08-01T19:15:00,2,20807648,195124
OK,98,37,1055,98,2014-08-01T19:20:00,1,20808097,195124
OK,98,37,1055,98,2014-08-01T19:25:00,0,20808546,195124
OK,98,37,1055,98,2014-08-01T19:30:00,0,20808995,195124
OK,98,37,1055,98,2014-08-01T19:35:00,0,20809444,195124
OK,98,37,1055,98,2014-08-01T19:40:00,0,20809893,195124
OK,98,37,1055,98,2014-08-01T19:45:00,0,20810342,195124
OK,98,37,1055,98,2014-08-01T19:50:00,0,20810791,195124
OK,98,37,1055,98,2014-08-01T19:55:00,0,20811240,195124
OK,98,37,1055,98,2014-08-01T22:00:00,0,20816969,195124
OK,58,62,1055,58,2014-08-02T00:00:00,0,20823408,195124
OK,86,42,1055,86,2014-08-02T00:05:00,1,20823857,195124
OK,86,42,1055,86,2014-08-02T00:10:00,1,20824306,195124
OK,86,42,1055,86,2014-08-02T00:15:00,0,20824755,195124
OK,86,42,1055,86,2014-08-02T00:20:00,0,20825204,195124
OK,86,42,1055,86,2014-08-02T00:25:00,0,20825653,195124
OK,86,42,1055,86,2014-08-02T00:30:00,0,20826102,195124
OK,86,42,1055,86,2014-08-02T00:35:00,0,20826551,195124
OK,86,42,1055,86,2014-08-02T00:40:00,0,20827000,195124
OK,86,42,1055,86,2014-08-02T00:45:00,0,20827449,195124
OK,86,42,1055,86,2014-08-02T00:50:00,0,20827898,195124
OK,86,42,1055,86,2014-08-02T00:55:00,0,20828347,195124
OK,86,42,1055,86,2014-08-02T01:00:00,0,20828796,195124
OK,43,84,1055,43,2014-08-02T01:05:00,1,20829245,195124
OK,43,84,1055,43,2014-08-02T01:10:00,1,20829694,195124
OK,43,84,1055,43,2014-08-02T01:15:00,0,20830143,195124
OK,43,84,1055,43,2014-08-02T01:20:00,0,20830592,195124
OK,43,84,1055,43,2014-08-02T01:25:00,0,20831041,195124
OK,43,84,1055,43,2014-08-02T01:30:00,0,20831490,195124
OK,43,84,1055,43,2014-08-02T01:35:00,0,20831939,195124
OK,43,84,1055,43,2014-08-02T01:40:00,0,20832388,195124
OK,43,84,1055,43,2014-08-02T01:45:00,0,20832837,195124
OK,99,36,1055,99,2014-08-02T01:50:00,1,20833286,195124
OK,99,36,1055,99,2014-08-02T01:55:00,1,20833735,195124
OK,99,36,1055,99,2014-08-02T02:00:00,0,20834184,195124
OK,91,40,1055,91,2014-08-02T02:05:00,1,20834633,195124
OK,91,40,1055,91,2014-08-02T02:10:00,0,20835082,195124
OK,91,40,1055,91,2014-08-02T02:15:00,0,20835531,195124
OK,91,40,1055,91,2014-08-02T02:20:00,0,20835980,195124
OK,63,57,1055,63,2014-08-02T02:25:00,1,20836429,195124
OK,63,57,1055,63,2014-08-02T02:30:00,1,20836878,195124
OK,63,57,1055,63,2014-08-02T02:35:00,0,20837327,195124
OK,63,57,1055,63,2014-08-02T02:40:00,0,20837776,195124
OK,42,86,1055,42,2014-08-02T02:45:00,0,20838225,195124
OK,42,86,1055,42,2014-08-02T02:50:00,0,20838674,195124
OK,42,86,1055,42,2014-08-02T02:55:00,0,20839123,195124
OK,42,86,1055,42,2014-08-02T03:00:00,0,20839572,195124
OK,42,86,1055,42,2014-08-02T03:05:00,0,20840021,195124
OK,42,86,1055,42,2014-08-02T03:10:00,0,20840470,195124
OK,42,86,1055,42,2014-08-02T03:15:00,0,20840919,195124
OK,81,45,1055,81,2014-08-02T03:20:00,1,20841368,195124
OK,81,45,1055,81,2014-08-02T03:25:00,1,20841817,195124
OK,81,45,1055,81,2014-08-02T03:30:00,0,20842266,195124
OK,81,45,1055,81,2014-08-02T03:35:00,0,20842715,195124
OK,81,45,1055,81,2014-08-02T03:40:00,0,20843164,195124
OK,81,45,1055,81,2014-08-02T03:45:00,0,20843613,195124
OK,81,45,1055,81,2014-08-02T03:50:00,0,20844062,195124
OK,81,45,1055,81,2014-08-02T03:55:00,0,20844511,195124
OK,75,48,1055,75,2014-08-02T06:00:00,3,20851965,195124
OK,48,76,1055,48,2014-08-02T06:05:00,1,20852414,195124
OK,48,76,1055,48,2014-08-02T06:10:00,1,20852863,195124
OK,48,76,1055,48,2014-08-02T06:15:00,0,20853312,195124
OK,48,76,1055,48,2014-08-02T06:20:00,0,20853761,195124
OK,48,76,1055,48,2014-08-02T06:25:00,0,20854210,195124
OK,48,76,1055,48,2014-08-02T06:30:00,0,20854659,195124
OK,81,45,1055,81,2014-08-02T06:35:00,2,20855108,195124
OK,81,45,1055,81,2014-08-02T06:40:00,2,20855557,195124
OK,82,44,1055,82,2014-08-02T06:45:00,1,20856006,195124
OK,71,51,1055,71,2014-08-02T06:50:00,1,20856455,195124
OK,71,51,1055,71,2014-08-02T06:55:00,1,20856904,195124
OK,71,51,1055,71,2014-08-02T07:00:00,0,20857353,195124
OK,69,52,1055,69,2014-08-02T07:05:00,1,20857802,195124
OK,69,52,1055,69,2014-08-02T07:10:00,0,20858251,195124
OK,69,52,1055,69,2014-08-02T07:15:00,0,20858700,195124
OK,87,41,1055,87,2014-08-02T07:20:00,3,20859149,195124
OK,70,52,1055,70,2014-08-02T07:25:00,6,20859598,195124
OK,66,55,1055,66,2014-08-02T07:30:00,4,20860047,195124
OK,130,28,1055,130,2014-08-02T07:35:00,1,20860496,195124
OK,113,32,1055,113,2014-08-02T07:40:00,1,20860945,195124
OK,64,57,1055,64,2014-08-02T07:45:00,3,20861394,195124
OK,64,57,1055,64,2014-08-02T07:50:00,3,20861843,195124
OK,52,70,1055,52,2014-08-02T07:55:00,2,20862292,195124
OK,63,57,1055,63,2014-08-02T08:00:00,2,20862741,195124
OK,74,49,1055,74,2014-08-02T08:05:00,2,20863190,195124
OK,90,40,1055,90,2014-08-02T08:10:00,1,20863639,195124
OK,61,59,1055,61,2014-08-02T08:15:00,2,20864088,195124
OK,64,57,1055,64,2014-08-02T08:20:00,5,20864537,195124
OK,98,37,1055,98,2014-08-02T08:25:00,2,20864986,195124
OK,105,34,1055,105,2014-08-02T08:30:00,0,20865435,195124
OK,105,34,1055,105,2014-08-02T08:35:00,0,20865884,195124
OK,105,34,1055,105,2014-08-02T08:40:00,0,20866333,195124
OK,77,47,1055,77,2014-08-02T08:45:00,3,20866782,195124
OK,67,54,1055,67,2014-08-02T08:50:00,3,20867231,195124
OK,67,54,1055,67,2014-08-02T08:55:00,3,20867680,195124
OK,98,37,1055,98,2014-08-02T09:00:00,1,20868129,195124
OK,96,38,1055,96,2014-08-02T09:05:00,2,20868578,195124
OK,85,42,1055,85,2014-08-02T09:10:00,2,20869027,195124
OK,82,44,1055,82,2014-08-02T09:15:00,2,20869476,195124
OK,70,52,1055,70,2014-08-02T09:20:00,2,20869925,195124
OK,84,43,1055,84,2014-08-02T09:25:00,1,20870374,195124
OK,73,50,1055,73,2014-08-02T09:30:00,2,20870823,195124
OK,67,54,1055,67,2014-08-02T09:35:00,4,20871272,195124
OK,77,47,1055,77,2014-08-02T09:40:00,6,20871721,195124
OK,61,59,1055,61,2014-08-02T09:45:00,1,20872170,195124
OK,85,42,1055,85,2014-08-02T09:50:00,2,20872619,195124
OK,102,35,1055,102,2014-08-02T09:55:00,3,20873068,195124
OK,93,39,1055,93,2014-08-02T10:00:00,2,20873517,195124
OK,96,38,1055,96,2014-08-02T10:05:00,4,20873966,195124
OK,73,50,1055,73,2014-08-02T10:10:00,8,20874415,195124
OK,82,44,1055,82,2014-08-02T10:15:00,7,20874864,195124
OK,74,49,1055,74,2014-08-02T10:20:00,4,20875313,195124
OK,62,58,1055,62,2014-08-02T10:25:00,2,20875762,195124
OK,66,55,1055,66,2014-08-02T10:30:00,1,20876211,195124
OK,66,55,1055,66,2014-08-02T10:35:00,5,20876660,195124
OK,75,48,1055,75,2014-08-02T10:40:00,8,20877109,195124
OK,76,48,1055,76,2014-08-02T10:45:00,7,20877558,195124
OK,96,38,1055,96,2014-08-02T10:50:00,2,20878007,195124
OK,93,39,1055,93,2014-08-02T10:55:00,3,20878456,195124
OK,105,34,1055,105,2014-08-02T11:00:00,5,20878905,195124
OK,106,34,1055,106,2014-08-02T11:05:00,4,20879354,195124
OK,108,33,1055,108,2014-08-02T11:10:00,3,20879803,195124
OK,78,46,1055,78,2014-08-02T11:15:00,0,20880252,195124
OK,84,43,1055,84,2014-08-02T11:20:00,2,20880701,195124
OK,95,38,1055,95,2014-08-02T11:25:00,3,20881150,195124
OK,112,32,1055,112,2014-08-02T11:30:00,1,20881599,195124
OK,112,32,1055,112,2014-08-02T11:35:00,0,20882048,195124
OK,57,64,1055,57,2014-08-02T11:40:00,1,20882497,195124
OK,79,46,1055,79,2014-08-02T11:45:00,2,20882946,195124
OK,102,35,1055,102,2014-08-02T11:50:00,3,20883395,195124
OK,61,59,1055,61,2014-08-02T11:55:00,6,20883844,195124
OK,62,58,1055,62,2014-08-02T12:00:00,5,20884293,195124
OK,81,45,1055,81,2014-08-02T12:05:00,2,20884742,195124
OK,75,48,1055,75,2014-08-02T12:10:00,2,20885191,195124
OK,85,42,1055,85,2014-08-02T12:15:00,2,20885640,195124
OK,61,59,1055,61,2014-08-02T12:20:00,1,20886089,195124
OK,61,59,1055,61,2014-08-02T12:25:00,1,20886538,195124
OK,61,59,1055,61,2014-08-02T12:30:00,0,20886987,195124
OK,64,57,1055,64,2014-08-02T12:35:00,1,20887436,195124
OK,66,55,1055,66,2014-08-02T12:40:00,2,20887885,195124
OK,77,47,1055,77,2014-08-02T12:45:00,4,20888334,195124
OK,94,38,1055,94,2014-08-02T12:50:00,3,20888783,195124
OK,94,38,1055,94,2014-08-02T12:55:00,0,20889232,195124
OK,73,50,1055,73,2014-08-02T13:00:00,1,20889681,195124
OK,60,60,1055,60,2014-08-02T13:05:00,2,20890130,195124
OK,78,46,1055,78,2014-08-02T13:10:00,2,20890579,195124
OK,110,33,1055,110,2014-08-02T13:15:00,1,20891028,195124
OK,65,56,1055,65,2014-08-02T13:20:00,3,20891477,195124
OK,64,57,1055,64,2014-08-02T13:25:00,4,20891926,195124
OK,69,52,1055,69,2014-08-02T13:30:00,3,20892375,195124
OK,84,43,1055,84,2014-08-02T13:35:00,4,20892824,195124
OK,68,53,1055,68,2014-08-02T13:40:00,7,20893273,195124
OK,68,53,1055,68,2014-08-02T13:45:00,8,20893722,195124
OK,88,41,1055,88,2014-08-02T13:50:00,3,20894171,195124
OK,82,44,1055,82,2014-08-02T13:55:00,2,20894620,195124
OK,82,44,1055,82,2014-08-02T14:00:00,2,20895069,195124
OK,66,55,1055,66,2014-08-02T14:05:00,3,20895518,195124
OK,68,53,1055,68,2014-08-02T14:10:00,4,20895967,195124
OK,79,46,1055,79,2014-08-02T14:15:00,4,20896416,195124
OK,80,45,1055,80,2014-08-02T14:20:00,2,20896865,195124
OK,80,45,1055,80,2014-08-02T14:25:00,0,20897314,195124
OK,80,45,1055,80,2014-08-02T14:30:00,0,20897763,195124
OK,80,45,1055,80,2014-08-02T14:35:00,1,20898212,195124
OK,73,50,1055,73,2014-08-02T14:40:00,2,20898661,195124
OK,78,46,1055,78,2014-08-02T14:45:00,2,20899110,195124
OK,59,61,1055,59,2014-08-02T14:50:00,1,20899559,195124
OK,99,36,1055,99,2014-08-02T14:55:00,3,20900008,195124
OK,99,36,1055,99,2014-08-02T15:00:00,3,20900457,195124
OK,66,55,1055,66,2014-08-02T15:05:00,2,20900906,195124
OK,71,51,1055,71,2014-08-02T15:10:00,2,20901355,195124
OK,75,48,1055,75,2014-08-02T15:15:00,1,20901804,195124
OK,76,48,1055,76,2014-08-02T15:20:00,1,20902253,195124
OK,83,43,1055,83,2014-08-02T15:25:00,2,20902702,195124
OK,83,43,1055,83,2014-08-02T15:30:00,2,20903151,195124
OK,97,37,1055,97,2014-08-02T15:35:00,4,20903600,195124
OK,97,37,1055,97,2014-08-02T15:40:00,5,20904049,195124
OK,76,48,1055,76,2014-08-02T15:45:00,2,20904498,195124
OK,70,52,1055,70,2014-08-02T15:50:00,2,20904947,195124
OK,82,44,1055,82,2014-08-02T15:55:00,2,20905396,195124
OK,81,45,1055,81,2014-08-02T16:00:00,3,20905845,195124
OK,73,50,1055,73,2014-08-02T16:05:00,1,20906294,195124
OK,73,50,1055,73,2014-08-02T16:10:00,1,20906743,195124
OK,70,52,1055,70,2014-08-02T16:15:00,3,20907192,195124
OK,70,52,1055,70,2014-08-02T16:20:00,3,20907641,195124
OK,82,44,1055,82,2014-08-02T16:25:00,0,20908090,195124
OK,82,44,1055,82,2014-08-02T16:30:00,0,20908539,195124
OK,61,59,1055,61,2014-08-02T16:35:00,1,20908988,195124
OK,62,58,1055,62,2014-08-02T16:40:00,4,20909437,195124
OK,61,59,1055,61,2014-08-02T16:45:00,4,20909886,195124
OK,74,49,1055,74,2014-08-02T16:50:00,2,20910335,195124
OK,98,37,1055,98,2014-08-02T16:55:00,2,20910784,195124
OK,103,35,1055,103,2014-08-02T17:00:00,1,20911233,195124
OK,103,35,1055,103,2014-08-02T17:05:00,0,20911682,195124
OK,103,35,1055,103,2014-08-02T17:10:00,0,20912131,195124
OK,63,57,1055,63,2014-08-02T17:15:00,1,20912580,195124
OK,63,57,1055,63,2014-08-02T17:20:00,1,20913029,195124
OK,97,37,1055,97,2014-08-02T17:25:00,3,20913478,195124
OK,97,37,1055,97,2014-08-02T17:30:00,3,20913927,195124
OK,97,37,1055,97,2014-08-02T17:35:00,0,20914376,195124
OK,97,37,1055,97,2014-08-02T17:40:00,0,20914825,195124
OK,97,37,1055,97,2014-08-02T17:45:00,0,20915274,195124
OK,97,37,1055,97,2014-08-02T17:50:00,0,20915723,195124
OK,109,33,1055,109,2014-08-02T17:55:00,1,20916172,195124
OK,109,33,1055,109,2014-08-02T18:00:00,1,20916621,195124
OK,109,33,1055,109,2014-08-02T18:05:00,0,20917070,195124
OK,109,33,1055,109,2014-08-02T18:10:00,0,20917519,195124
OK,109,33,1055,109,2014-08-02T18:15:00,0,20917968,195124
OK,109,33,1055,109,2014-08-02T18:20:00,0,20918417,195124
OK,109,33,1055,109,2014-08-02T18:25:00,0,20918866,195124
OK,74,49,1055,74,2014-08-02T18:30:00,1,20919315,195124
OK,66,55,1055,66,2014-08-02T18:35:00,2,20919764,195124
OK,58,62,1055,58,2014-08-02T18:40:00,0,20920213,195124
OK,58,62,1055,58,2014-08-02T18:45:00,0,20920662,195124
OK,65,56,1055,65,2014-08-02T18:50:00,1,20921111,195124
OK,65,56,1055,65,2014-08-02T18:55:00,1,20921560,195124
OK,65,56,1055,65,2014-08-02T19:00:00,0,20922009,195124
OK,60,60,1055,60,2014-08-02T19:05:00,1,20922458,195124
OK,60,60,1055,60,2014-08-02T19:10:00,1,20922907,195124
OK,60,60,1055,60,2014-08-02T19:15:00,0,20923356,195124
OK,60,60,1055,60,2014-08-02T19:20:00,0,20923805,195124
OK,60,60,1055,60,2014-08-02T19:25:00,0,20924254,195124
OK,60,60,1055,60,2014-08-02T19:30:00,0,20924703,195124
OK,71,51,1055,71,2014-08-02T19:35:00,1,20925152,195124
OK,71,51,1055,71,2014-08-02T19:40:00,1,20925601,195124
OK,71,51,1055,71,2014-08-02T19:45:00,0,20926050,195124
OK,71,51,1055,71,2014-08-02T19:50:00,0,20926499,195124
OK,71,51,1055,71,2014-08-02T19:55:00,0,20926948,195124
OK,71,51,1055,71,2014-08-02T20:00:00,0,20927397,195124
OK,61,59,1055,61,2014-08-02T20:05:00,1,20927846,195124
OK,61,59,1055,61,2014-08-02T20:10:00,1,20928295,195124
OK,61,59,1055,61,2014-08-02T20:15:00,0,20928744,195124
OK,116,31,1055,116,2014-08-02T20:20:00,1,20929193,195124
OK,116,31,1055,116,2014-08-02T20:25:00,1,20929642,195124
OK,116,31,1055,116,2014-08-02T20:30:00,0,20930091,195124
OK,116,31,1055,116,2014-08-02T20:35:00,0,20930540,195124
OK,116,31,1055,116,2014-08-02T20:40:00,0,20930989,195124
OK,116,31,1055,116,2014-08-02T20:45:00,0,20931438,195124
OK,109,33,1055,109,2014-08-02T20:50:00,1,20931887,195124
OK,84,43,1055,84,2014-08-02T20:55:00,2,20932336,195124
OK,59,61,1055,59,2014-08-02T21:00:00,1,20932785,195124
OK,59,61,1055,59,2014-08-02T21:05:00,0,20933234,195124
OK,59,61,1055,59,2014-08-02T21:10:00,0,20933683,195124
OK,59,61,1055,59,2014-08-02T21:15:00,0,20934132,195124
OK,74,49,1055,74,2014-08-02T21:20:00,2,20934581,195124
OK,74,49,1055,74,2014-08-02T21:25:00,2,20935030,195124
OK,76,48,1055,76,2014-08-02T21:30:00,0,20935479,195124
OK,76,48,1055,76,2014-08-02T21:35:00,0,20935928,195124
OK,76,48,1055,76,2014-08-02T21:40:00,0,20936377,195124
OK,76,48,1055,76,2014-08-02T21:45:00,0,20936826,195124
OK,76,48,1055,76,2014-08-02T21:50:00,0,20937275,195124
OK,74,49,1055,74,2014-08-02T21:55:00,1,20937724,195124
OK,74,49,1055,74,2014-08-02T22:00:00,0,20938173,195124
OK,101,36,1055,101,2014-08-02T22:05:00,1,20938622,195124
OK,101,36,1055,101,2014-08-02T22:10:00,1,20939071,195124
OK,66,55,1055,66,2014-08-02T22:15:00,2,20939520,195124
OK,70,52,1055,70,2014-08-02T22:20:00,3,20939969,195124
OK,91,40,1055,91,2014-08-02T22:25:00,2,20940418,195124
OK,91,40,1055,91,2014-08-02T22:30:00,2,20940867,195124
OK,107,34,1055,107,2014-08-02T22:35:00,0,20941316,195124
OK,107,34,1055,107,2014-08-02T22:40:00,0,20941765,195124
OK,107,34,1055,107,2014-08-02T22:45:00,0,20942214,195124
OK,107,34,1055,107,2014-08-02T22:50:00,0,20942663,195124
OK,107,34,1055,107,2014-08-02T22:55:00,0,20943112,195124
OK,59,61,1055,59,2014-08-02T23:00:00,1,20943561,195124
OK,59,61,1055,59,2014-08-02T23:10:00,0,20944010,195124
OK,59,61,1055,59,2014-08-02T23:15:00,0,20944459,195124
OK,59,61,1055,59,2014-08-02T23:20:00,0,20944908,195124
OK,59,61,1055,59,2014-08-02T23:25:00,0,20945357,195124
OK,89,41,1055,89,2014-08-02T23:30:00,3,20945806,195124
OK,89,41,1055,89,2014-08-02T23:35:00,3,20946255,195124
OK,84,43,1055,84,2014-08-02T23:40:00,0,20946704,195124
OK,84,43,1055,84,2014-08-02T23:45:00,0,20947153,195124
OK,84,43,1055,84,2014-08-02T23:50:00,0,20947602,195124
OK,84,43,1055,84,2014-08-02T23:55:00,0,20948051,195124
OK,84,43,1055,84,2014-08-03T00:00:00,0,20948500,195124
OK,84,43,1055,84,2014-08-03T00:05:00,0,20948949,195124
OK,84,43,1055,84,2014-08-03T00:10:00,0,20949397,195124
OK,59,61,1055,59,2014-08-03T00:15:00,1,20949846,195124
OK,59,61,1055,59,2014-08-03T00:20:00,1,20950295,195124
OK,59,61,1055,59,2014-08-03T00:25:00,0,20950744,195124
OK,59,61,1055,59,2014-08-03T00:30:00,0,20951193,195124
OK,59,61,1055,59,2014-08-03T00:35:00,0,20951642,195124
OK,59,61,1055,59,2014-08-03T00:40:00,0,20952091,195124
OK,59,61,1055,59,2014-08-03T00:45:00,0,20952540,195124
OK,59,61,1055,59,2014-08-03T00:50:00,0,20952989,195124
OK,59,61,1055,59,2014-08-03T00:55:00,0,20953438,195124
OK,59,61,1055,59,2014-08-03T01:00:00,0,20953887,195124
OK,59,61,1055,59,2014-08-03T01:05:00,0,20954336,195124
OK,59,61,1055,59,2014-08-03T01:10:00,0,20954785,195124
OK,59,61,1055,59,2014-08-03T01:15:00,0,20955234,195124
OK,59,61,1055,59,2014-08-03T01:20:00,0,20955683,195124
OK,59,61,1055,59,2014-08-03T01:25:00,0,20956132,195124
OK,69,52,1055,69,2014-08-03T01:30:00,1,20956581,195124
OK,69,52,1055,69,2014-08-03T01:35:00,0,20957030,195124
OK,69,52,1055,69,2014-08-03T01:40:00,0,20957479,195124
OK,68,53,1055,68,2014-08-03T01:45:00,1,20957928,195124
OK,68,53,1055,68,2014-08-03T01:50:00,1,20958377,195124
OK,68,53,1055,68,2014-08-03T01:55:00,0,20958826,195124
OK,68,53,1055,68,2014-08-03T02:00:00,0,20959275,195124
OK,68,53,1055,68,2014-08-03T02:05:00,0,20959724,195124
OK,68,53,1055,68,2014-08-03T02:10:00,0,20960173,195124
OK,68,53,1055,68,2014-08-03T02:15:00,0,20960622,195124
OK,68,53,1055,68,2014-08-03T02:20:00,0,20961071,195124
OK,68,53,1055,68,2014-08-03T02:25:00,0,20961520,195124
OK,68,53,1055,68,2014-08-03T02:30:00,0,20961969,195124
OK,68,53,1055,68,2014-08-03T02:35:00,0,20962418,195124
OK,89,41,1055,89,2014-08-03T02:40:00,1,20962867,195124
OK,89,41,1055,89,2014-08-03T02:45:00,0,20963316,195124
OK,89,41,1055,89,2014-08-03T02:50:00,0,20963765,195124
OK,89,41,1055,89,2014-08-03T02:55:00,0,20964214,195124
OK,62,58,1055,62,2014-08-03T03:00:00,1,20964663,195124
OK,62,58,1055,62,2014-08-03T03:05:00,0,20965112,195124
OK,62,58,1055,62,2014-08-03T03:10:00,0,20965561,195124
OK,62,58,1055,62,2014-08-03T03:15:00,0,20966010,195124
OK,62,58,1055,62,2014-08-03T03:20:00,0,20966459,195124
OK,62,58,1055,62,2014-08-03T03:25:00,0,20966908,195124
OK,62,58,1055,62,2014-08-03T03:30:00,0,20967357,195124
OK,62,58,1055,62,2014-08-03T03:35:00,0,20967806,195124
OK,62,58,1055,62,2014-08-03T03:40:00,0,20968255,195124
OK,96,38,1055,96,2014-08-03T03:45:00,1,20968704,195124
OK,96,38,1055,96,2014-08-03T03:50:00,0,20969153,195124
OK,96,38,1055,96,2014-08-03T03:55:00,0,20969602,195124
OK,80,45,1055,80,2014-08-03T05:00:00,0,20975068,195124